CAPE
nan nan nan nan nan nan nan nan nan nan nan nan nan nan nan nan 3 3 0 5 5 14 14 16 16 12 3 nan nan nan nan nan nan nan nan nan nan nan nan nan nan nan nan nan nan nan nan nan nan nan nan nan 0 0 20 66 66 91 91 55 55 33 20 24 24 11 nan nan nan nan nan nan nan nan nan nan nan nan nan nan nan nan 0 3 3 10
nan nan nan nan nan nan nan nan nan nan nan nan nan nan nan nan 1 1 3 4 4 13 14 14 14 11 13 3 nan nan nan nan nan nan nan nan nan nan nan nan nan nan nan nan nan nan nan nan nan nan nan nan nan nan 2 37 37 79 94 81 81 57 27 32 32 24 5 0 nan nan nan nan nan nan nan nan nan nan nan nan nan nan 1 7 7 16
nan nan nan nan nan nan nan nan nan nan nan nan nan nan nan nan 0 0 1 3 3 11 16 14 14 10 11 6 1 1 nan nan nan nan nan nan nan nan nan nan nan nan nan nan nan nan nan nan nan nan nan nan nan nan nan 0 0 18 46 37 37 26 12 8 8 6 1 nan nan nan nan nan nan nan nan nan nan nan nan nan nan nan 2 12 12 19
nan nan nan nan nan nan nan nan nan nan nan nan nan nan nan nan nan nan nan 3 3 8 13 12 12 10 11 8 1 1 nan nan nan nan nan nan nan nan nan nan nan nan nan nan nan nan nan nan nan nan nan nan nan nan nan nan nan nan nan nan nan nan nan nan nan nan nan nan nan nan nan nan nan nan nan nan nan nan nan nan nan nan 5 15 15 22
nan nan nan nan nan nan nan nan nan nan nan nan nan nan nan nan nan nan nan 0 0 4 6 7 7 6 8 8 1 1 nan nan nan nan nan nan nan nan nan nan nan nan nan nan nan nan nan nan nan nan nan nan nan nan nan nan nan nan nan nan nan nan nan nan nan nan nan nan nan nan nan nan nan nan nan nan nan nan nan nan nan 0 7 18 18 24
nan nan nan nan nan nan nan nan nan nan nan nan nan nan nan nan nan nan nan nan nan nan 1 3 3 4 6 7 1 1 nan nan nan nan nan nan nan nan nan nan nan nan nan nan nan nan nan nan nan nan nan nan nan nan nan nan nan nan nan nan nan nan nan nan nan nan nan nan nan nan nan nan nan nan nan nan nan nan nan nan nan 0 8 19 19 26
nan nan nan nan nan nan nan nan nan nan nan nan nan nan nan nan nan nan nan nan nan nan nan 0 0 1 2 nan nan nan nan nan nan nan nan nan nan nan nan nan nan nan nan nan nan nan nan nan nan nan nan nan nan nan nan nan nan nan nan nan nan nan nan nan nan nan nan nan nan nan nan nan nan nan nan nan nan nan nan nan nan nan 4 16 16 25
nan nan nan nan nan nan nan nan nan nan nan nan nan nan nan nan nan nan nan nan nan nan nan nan nan nan nan 1 3 3 8 16 23 23 10 2 nan nan nan nan nan nan nan nan nan nan nan nan nan nan nan nan nan nan nan nan nan nan nan nan nan nan nan nan nan nan nan nan nan nan nan nan nan nan nan nan nan nan nan nan nan nan nan 0 0 10
0 nan nan nan nan nan nan nan nan nan nan nan nan nan nan nan nan nan nan nan nan nan nan nan nan nan nan 0 6 6 4 6 14 14 21 29 25 25 nan nan nan nan nan nan nan nan nan nan nan nan nan nan nan nan nan nan nan nan nan nan nan nan nan nan nan nan nan nan nan nan nan nan nan nan nan nan nan nan nan nan nan nan nan nan nan 2
nan nan nan nan nan nan nan nan nan nan nan nan nan nan nan nan nan nan nan nan nan nan nan nan nan nan nan nan 5 5 5 2 0 0 3 nan 1 1 nan nan nan nan nan nan nan nan nan nan nan nan nan nan nan nan nan nan nan nan nan nan nan nan nan nan nan nan nan nan nan nan nan nan nan nan nan nan nan nan nan nan nan nan nan nan nan nan
nan nan nan nan nan nan nan nan nan nan nan nan nan nan nan nan nan nan nan nan nan nan nan nan nan nan nan 0 6 6 4 3 1 1 2 nan nan nan nan nan nan nan nan nan nan nan nan nan nan nan nan nan nan nan nan nan nan nan nan nan nan nan nan nan nan nan nan nan nan nan nan nan nan nan nan nan nan nan nan nan nan nan nan nan nan nan
nan nan nan nan nan nan nan nan nan nan nan nan nan nan nan nan nan nan nan nan nan nan nan nan nan nan nan 2 7 7 3 2 1 1 2 3 6 6 8 12 12 0 nan nan nan nan nan nan nan nan nan nan nan nan nan nan nan nan nan nan nan nan nan nan nan nan nan nan nan nan nan nan nan nan nan nan nan nan nan nan nan nan nan nan nan nan
nan nan nan nan nan nan nan nan nan nan nan nan nan nan nan nan nan nan nan nan nan nan nan nan nan nan nan 3 5 5 2 1 0 0 0 2 8 8 14 20 20 33 34 3 3 nan nan nan nan nan nan nan nan nan nan nan nan nan nan nan nan nan nan nan nan nan nan nan nan nan nan nan nan nan nan nan nan nan nan nan nan nan nan nan nan nan
nan nan nan nan nan nan nan nan nan nan nan nan nan nan nan nan nan nan nan nan nan nan nan nan nan nan nan 5 1 1 0 nan nan nan nan 0 4 4 10 12 12 17 36 47 47 29 nan nan nan nan nan nan nan nan nan nan nan nan nan nan nan nan nan nan nan nan nan nan nan nan nan nan nan nan nan nan nan nan nan nan nan nan nan nan nan nan
nan nan nan nan nan nan nan nan nan nan nan nan nan nan nan nan nan nan nan nan nan nan nan nan nan nan nan 2 nan nan nan nan nan nan nan nan 0 0 6 9 9 11 23 37 37 50 nan nan nan nan nan nan nan nan nan nan nan nan nan nan nan nan nan nan nan nan nan nan nan nan nan nan nan nan nan nan nan nan nan nan nan nan nan nan nan nan
nan nan nan nan nan nan nan nan nan nan nan nan nan nan nan nan nan nan nan nan nan nan nan nan nan nan nan nan 0 0 nan nan nan nan nan nan nan nan 4 8 8 7 13 27 27 42 33 13 13 0 nan nan nan nan nan nan nan nan nan nan nan nan nan nan nan nan nan nan nan nan nan nan nan nan nan nan nan nan nan nan nan nan nan nan nan nan
nan nan nan nan nan nan nan nan nan nan nan nan nan nan nan 0 0 0 nan nan nan nan nan nan nan nan nan nan nan nan nan nan nan nan nan nan nan nan 1 7 7 7 9 17 17 34 38 33 33 14 0 nan nan nan nan nan nan nan nan nan nan nan nan nan nan nan nan nan nan nan nan nan nan nan nan nan nan nan nan nan nan nan nan nan nan nan
nan nan nan nan nan nan nan nan nan nan nan nan nan nan nan 0 0 0 nan nan nan nan nan nan nan nan nan nan nan nan nan nan nan nan nan nan nan nan nan 3 3 6 9 14 14 31 34 42 42 39 1 nan nan nan nan nan nan nan nan nan nan nan nan nan nan nan nan nan nan nan nan nan nan nan nan nan nan nan nan nan nan nan nan nan nan nan
nan nan nan nan nan nan nan nan nan nan nan nan nan nan nan nan nan nan nan 0 0 1 0 nan nan nan nan nan nan nan nan nan nan nan nan nan nan nan nan nan nan 3 7 15 15 30 37 39 39 2 nan nan nan nan nan nan nan nan nan nan nan nan nan nan nan nan nan nan nan nan nan nan nan nan nan nan nan nan nan nan nan nan nan nan nan nan
nan nan nan nan nan nan nan nan nan nan nan 0 1 1 0 nan 0 0 0 0 0 2 4 0 0 nan nan nan nan nan nan 0 nan nan nan nan nan nan nan 0 0 1 7 14 14 34 44 44 44 6 nan nan nan nan nan nan nan nan nan nan nan nan nan nan nan nan nan nan nan nan nan nan nan nan nan nan nan nan nan nan nan nan nan nan nan nan
nan nan nan nan nan nan nan nan nan nan 2 5 4 4 1 0 0 0 1 1 1 4 6 5 5 0 nan nan nan nan 0 2 2 2 0 nan nan nan 0 4 4 6 8 10 10 30 41 31 31 27 nan nan nan nan nan nan nan nan nan nan nan nan nan nan nan nan nan nan nan nan nan nan nan nan nan nan nan nan nan nan nan nan nan nan nan nan
0 nan nan nan nan nan nan nan 1 1 6 14 5 5 3 1 2 2 3 5 5 6 8 7 7 4 3 0 nan nan 3 6 5 5 4 0 nan nan 0 13 13 11 7 5 5 9 20 18 18 15 0 nan nan nan nan nan nan nan nan nan nan nan nan nan nan nan nan nan nan nan nan nan nan nan nan nan nan nan nan nan nan nan nan nan nan nan
3 nan nan 0 0 0 0 1 5 5 8 11 7 7 6 7 7 7 8 10 10 10 12 11 11 9 6 2 1 1 2 3 7 7 11 5 nan nan 0 16 16 7 4 2 2 8 12 14 14 10 nan nan nan nan nan nan nan nan nan nan nan nan nan nan nan nan nan nan nan nan nan nan nan nan nan nan nan nan nan nan nan nan nan nan nan nan
4 2 2 1 1 4 5 4 5 5 7 9 10 10 16 19 18 18 19 19 19 24 17 15 15 8 6 4 0 0 0 1 6 6 12 6 nan nan 0 11 11 4 0 0 0 7 10 7 7 5 1 nan nan nan nan nan nan nan nan nan nan nan nan nan nan nan nan nan nan nan nan nan nan nan nan nan nan nan nan nan nan nan nan nan nan nan
2 3 2 2 2 10 7 5 7 7 10 10 12 12 21 20 21 21 22 21 21 22 18 9 9 7 6 4 0 0 nan 0 8 8 10 6 nan nan nan 6 6 2 0 1 1 6 7 2 2 1 2 nan nan nan nan nan nan nan nan nan nan nan nan nan nan nan nan nan nan nan nan nan nan nan nan nan nan nan nan nan nan nan nan nan nan nan
2 1 1 2 2 9 11 14 16 16 17 16 23 23 18 14 20 20 19 19 19 16 13 10 10 7 4 4 0 0 nan 2 12 12 10 3 nan nan nan 1 1 2 3 3 3 7 6 2 2 nan 0 nan nan nan nan nan nan nan nan nan nan nan nan nan nan nan nan nan nan nan nan nan nan nan nan nan nan nan nan nan nan nan nan nan nan nan
2 3 5 7 7 9 12 17 20 20 23 23 21 21 19 17 18 18 16 12 12 10 9 8 8 7 4 3 1 1 nan 1 12 12 14 2 nan nan nan 0 0 4 6 7 7 11 7 2 2 nan nan nan nan nan nan nan nan nan nan nan nan nan nan nan nan nan nan nan nan nan nan nan nan nan nan nan nan nan nan nan nan nan nan nan nan nan
2 4 5 7 7 9 11 15 18 18 20 22 24 24 21 18 13 13 10 6 6 8 8 7 7 6 3 2 1 1 0 nan 1 1 7 2 nan nan nan 0 0 6 7 6 6 10 4 0 0 nan nan 0 1 1 nan nan nan nan nan nan nan nan nan nan nan nan nan nan nan nan nan nan nan nan nan nan nan nan nan nan nan nan nan nan nan nan
0 1 3 4 4 8 13 16 17 17 20 20 21 21 21 15 10 10 9 6 6 8 9 9 9 7 4 2 2 2 2 0 nan nan 3 2 0 0 nan 6 6 10 7 8 8 8 3 2 2 0 nan nan nan nan nan nan nan nan nan nan nan nan nan nan nan nan nan nan nan nan nan nan nan nan nan nan nan nan nan nan nan nan nan nan nan nan
2 1 0 3 3 8 12 15 17 17 19 20 20 20 20 16 12 12 10 10 10 9 12 12 12 9 7 7 5 5 3 0 0 0 4 5 6 6 6 6 6 1 2 4 4 nan nan 3 3 2 nan nan nan nan nan nan nan nan nan nan nan nan nan nan nan nan nan nan nan nan nan nan nan nan nan nan nan nan nan nan nan nan nan nan nan nan
8 9 16 14 14 11 10 11 13 13 16 19 22 22 20 17 15 15 14 14 14 14 13 11 11 10 10 11 6 6 2 4 23 23 3 6 12 12 15 13 13 6 5 7 7 0 nan 0 0 1 nan nan nan nan nan nan nan nan 0 nan nan nan nan nan nan nan nan nan nan nan nan nan nan nan nan nan nan nan nan nan nan nan nan nan nan nan
33 18 13 14 14 12 14 15 11 11 9 10 11 11 13 13 14 14 14 14 14 19 20 18 18 16 20 21 13 13 9 4 17 17 28 18 6 6 5 8 8 8 10 21 21 20 14 0 0 0 2 1 nan nan nan nan nan nan nan nan nan nan nan nan nan nan nan nan nan nan nan nan nan nan nan nan nan nan nan nan nan nan nan nan nan nan
32 24 18 16 16 16 16 15 13 13 9 9 9 9 9 11 13 13 14 14 14 16 18 20 20 16 18 18 14 14 15 9 18 18 33 24 6 6 5 9 9 13 15 14 14 14 17 11 11 5 4 5 3 3 nan nan nan nan nan nan nan nan nan nan nan 0 1 nan nan nan nan nan nan nan nan nan nan nan nan nan nan nan nan nan nan nan
26 35 34 27 27 21 20 17 16 16 12 9 8 8 8 11 12 12 12 13 13 18 20 19 19 18 15 10 11 11 12 12 20 20 48 30 13 13 9 11 11 14 17 19 19 22 17 18 18 10 3 3 4 4 3 nan nan nan nan nan nan nan nan nan nan 0 1 1 4 4 1 nan nan nan nan nan nan nan nan nan nan nan nan nan nan nan
18 23 23 27 27 20 18 15 15 15 13 10 9 9 10 12 12 12 13 11 11 15 18 22 22 24 18 10 9 9 9 7 29 29 45 32 22 22 15 14 14 19 20 23 23 23 17 18 18 16 9 4 1 1 3 1 1 nan nan nan nan nan nan nan nan nan 0 2 3 3 6 6 1 1 nan nan nan nan nan nan nan nan nan nan nan nan
18 16 19 23 23 19 17 14 11 11 10 8 11 11 14 11 9 9 8 12 12 13 15 18 18 20 18 15 11 11 10 9 17 17 31 34 22 22 14 17 17 22 17 21 21 20 19 13 13 14 12 7 3 3 4 3 3 nan nan nan nan nan nan nan nan nan nan 0 2 2 6 7 7 7 1 nan nan nan nan nan nan nan nan nan nan nan
18 16 19 20 20 23 21 16 8 8 6 6 11 11 17 15 13 13 14 20 20 19 14 14 14 13 18 18 16 16 16 13 21 21 31 37 23 23 17 16 16 17 14 17 17 20 18 16 16 13 10 8 6 6 4 7 7 2 0 0 0 nan nan nan nan nan nan nan 1 1 2 6 6 6 5 nan nan nan nan nan nan nan nan nan nan nan
17 18 18 17 17 16 14 13 6 6 5 6 12 12 17 20 18 18 14 14 14 16 18 12 12 12 18 21 20 20 22 20 26 26 29 34 24 24 16 12 12 11 11 20 20 22 19 16 16 13 10 9 7 7 6 7 7 4 1 2 2 0 nan nan nan nan nan nan nan nan nan 1 5 5 6 2 4 4 0 nan nan nan nan nan nan nan
20 23 22 19 19 18 16 11 9 9 9 10 13 13 17 23 25 25 19 17 17 17 20 15 15 10 16 22 20 20 17 14 17 17 23 14 17 17 18 13 13 8 12 20 20 25 23 15 15 13 11 9 8 8 8 9 9 3 2 1 1 2 3 1 1 nan nan nan nan nan nan nan 2 2 5 6 5 5 5 1 1 nan nan nan nan nan
35 33 22 19 19 16 15 13 13 13 12 14 17 17 19 20 20 20 17 16 16 19 26 23 23 13 12 12 15 15 14 12 13 13 20 18 18 18 18 10 10 8 11 14 14 19 23 16 16 14 13 10 10 10 7 10 10 6 3 1 1 1 2 4 4 1 nan nan nan nan nan nan 1 1 2 3 5 5 6 7 7 1 nan nan nan 0
23 15 11 7 7 4 5 6 12 12 13 12 14 14 18 18 12 12 9 9 9 10 12 19 19 16 11 8 13 13 12 5 8 8 4 18 19 19 14 10 10 7 8 10 10 11 16 17 17 13 10 10 11 11 9 9 9 6 4 3 3 2 2 3 3 3 1 nan nan nan nan nan nan nan 1 2 4 4 6 10 10 9 4 1 1 nan
11 6 3 1 1 0 0 4 8 8 11 17 19 19 16 14 16 16 17 17 17 16 19 13 13 11 13 6 12 12 9 8 7 7 nan nan nan nan 7 7 7 6 5 6 6 7 9 13 13 13 10 10 11 11 10 8 8 7 4 5 5 4 3 2 2 4 1 nan nan nan nan nan 0 0 0 2 5 5 5 9 9 4 3 7 7 2
3 1 1 1 1 1 2 6 6 6 8 13 13 13 10 11 17 17 20 24 24 24 20 15 15 16 17 12 11 11 7 7 15 15 4 nan nan nan 3 5 5 3 2 3 3 5 5 6 6 8 8 11 9 9 10 8 8 7 5 6 6 4 1 1 1 4 nan nan 0 0 0 1 1 1 2 3 4 4 5 2 2 nan 0 8 8 8
5 3 3 4 4 5 8 9 11 11 10 17 13 13 10 12 23 23 30 33 33 30 25 23 23 17 20 13 11 11 9 8 10 10 15 9 nan nan 1 5 5 1 1 2 2 2 4 5 5 5 9 9 8 8 7 8 8 6 7 7 7 4 1 1 1 3 3 2 1 1 2 2 3 3 2 2 2 2 2 2 2 3 1 5 5 8
9 11 10 13 13 14 12 18 16 16 17 18 14 14 15 22 27 27 35 39 39 37 28 26 26 17 17 13 13 13 10 8 8 8 14 14 nan nan 0 2 2 1 1 1 1 1 2 4 4 6 10 11 9 9 6 8 8 7 6 7 7 5 3 3 3 2 2 3 2 2 2 3 5 5 3 2 2 2 2 2 2 2 2 2 2 3
18 21 21 20 20 22 23 22 20 20 24 20 21 21 26 27 27 27 37 40 40 39 26 18 18 20 10 12 12 12 8 7 7 7 13 17 3 3 1 2 2 1 1 1 1 1 1 3 3 5 11 8 8 8 9 8 8 9 5 5 5 5 5 4 4 3 3 3 2 2 3 5 5 5 3 3 2 2 2 0 0 0 2 2 2 1
25 27 23 24 24 25 22 20 24 24 23 25 25 25 23 25 27 27 42 48 48 44 37 28 28 22 11 13 10 10 6 7 8 8 8 13 19 19 3 2 2 3 2 1 1 1 1 1 1 3 7 8 5 5 9 10 10 8 7 7 7 6 3 3 3 3 4 3 2 2 4 5 4 4 4 3 4 4 3 nan nan nan 0 0 0 0
25 25 30 27 27 31 28 24 25 25 22 21 17 17 16 20 25 25 41 49 49 53 50 35 35 19 15 16 10 10 9 9 10 10 8 10 19 19 16 8 8 4 3 3 3 2 2 0 0 2 4 3 3 3 7 11 11 10 9 8 8 5 3 3 3 3 4 3 5 5 5 4 4 4 4 4 4 4 4 nan nan nan nan nan nan 0
27 27 33 29 29 26 25 27 24 24 26 22 17 17 19 22 35 35 42 62 62 57 50 31 31 23 17 20 15 15 13 9 10 10 10 10 17 17 21 18 18 7 4 3 3 1 3 4 4 5 5 3 3 3 5 9 9 10 11 11 11 5 4 3 3 3 4 5 9 9 7 3 4 4 5 4 3 3 5 2 2 nan nan nan nan 0
40 33 33 35 35 26 30 35 34 34 36 31 26 26 22 24 18 18 37 60 60 60 54 39 39 27 22 18 16 16 13 9 8 8 8 10 19 19 23 29 29 16 5 6 6 2 4 4 4 6 6 4 4 4 4 5 5 8 10 10 10 5 3 3 3 4 5 5 9 9 8 6 6 6 7 5 4 4 5 3 3 nan nan nan nan 0
26 25 31 28 28 24 30 37 44 44 48 47 35 35 26 24 20 20 29 47 47 60 50 38 38 40 27 25 18 18 16 8 10 10 10 11 20 20 22 28 28 25 16 16 16 8 5 4 4 5 6 4 4 4 3 4 4 5 8 8 8 4 3 3 3 3 2 5 7 7 6 5 5 5 5 5 4 4 5 4 4 2 nan nan nan nan
CIN
nan nan nan nan nan nan nan nan nan nan nan nan nan nan nan nan -6 -6 -12 -6 -6 -1 -1 -0 -0 -1 -4 nan nan nan nan nan nan nan nan nan nan nan nan nan nan nan nan nan nan nan nan nan nan nan nan nan -133 -133 -104 -91 -91 -99 -93 -110 -110 -117 -121 -138 -138 -174 nan nan nan nan nan nan nan nan nan nan nan nan nan nan nan nan -50 -32 -32 -14
nan nan nan nan nan nan nan nan nan nan nan nan nan nan nan nan -5 -5 -8 -5 -5 -1 -1 -0 -0 -0 -0 -3 nan nan nan nan nan nan nan nan nan nan nan nan nan nan nan nan nan nan nan nan nan nan nan nan nan nan -117 -89 -89 -83 -91 -110 -110 -120 -135 -122 -122 -138 -197 -212 nan nan nan nan nan nan nan nan nan nan nan nan nan nan -42 -23 -23 -9
nan nan nan nan nan nan nan nan nan nan nan nan nan nan nan nan -4 -4 -6 -6 -6 -3 -1 -1 -1 -0 -0 -1 -5 -5 nan nan nan nan nan nan nan nan nan nan nan nan nan nan nan nan nan nan nan nan nan nan nan nan nan -146 -146 -131 -127 -161 -161 -190 -204 -169 -169 -160 -200 nan nan nan nan nan nan nan nan nan nan nan nan nan nan nan -31 -16 -16 -6
nan nan nan nan nan nan nan nan nan nan nan nan nan nan nan nan nan nan nan -6 -6 -4 -2 -1 -1 -1 -0 -1 -2 -2 nan nan nan nan nan nan nan nan nan nan nan nan nan nan nan nan nan nan nan nan nan nan nan nan nan nan nan nan nan nan nan nan nan nan nan nan nan nan nan nan nan nan nan nan nan nan nan nan nan nan nan nan -19 -10 -10 -4
nan nan nan nan nan nan nan nan nan nan nan nan nan nan nan nan nan nan nan -7 -7 -6 -4 -3 -3 -2 -0 -0 -2 -2 nan nan nan nan nan nan nan nan nan nan nan nan nan nan nan nan nan nan nan nan nan nan nan nan nan nan nan nan nan nan nan nan nan nan nan nan nan nan nan nan nan nan nan nan nan nan nan nan nan nan nan -20 -12 -5 -5 -3
nan nan nan nan nan nan nan nan nan nan nan nan nan nan nan nan nan nan nan nan nan nan -5 -4 -4 -3 -1 -0 -1 -1 nan nan nan nan nan nan nan nan nan nan nan nan nan nan nan nan nan nan nan nan nan nan nan nan nan nan nan nan nan nan nan nan nan nan nan nan nan nan nan nan nan nan nan nan nan nan nan nan nan nan nan -19 -9 -3 -3 -2
nan nan nan nan nan nan nan nan nan nan nan nan nan nan nan nan nan nan nan nan nan nan nan -4 -4 -5 -4 nan nan nan nan nan nan nan nan nan nan nan nan nan nan nan nan nan nan nan nan nan nan nan nan nan nan nan nan nan nan nan nan nan nan nan nan nan nan nan nan nan nan nan nan nan nan nan nan nan nan nan nan nan nan nan -9 -3 -3 -2
nan nan nan nan nan nan nan nan nan nan nan nan nan nan nan nan nan nan nan nan nan nan nan nan nan nan nan -4 -4 -4 -1 -0 -0 -0 -3 -7 nan nan nan nan nan nan nan nan nan nan nan nan nan nan nan nan nan nan nan nan nan nan nan nan nan nan nan nan nan nan nan nan nan nan nan nan nan nan nan nan nan nan nan nan nan nan nan -10 -10 -6
-0 nan nan nan nan nan nan nan nan nan nan nan nan nan nan nan nan nan nan nan nan nan nan nan nan nan nan -5 -3 -3 -4 -2 -0 -0 -0 -0 -0 -0 nan nan nan nan nan nan nan nan nan nan nan nan nan nan nan nan nan nan nan nan nan nan nan nan nan nan nan nan nan nan nan nan nan nan nan nan nan nan nan nan nan nan nan nan nan nan nan -10
nan nan nan nan nan nan nan nan nan nan nan nan nan nan nan nan nan nan nan nan nan nan nan nan nan nan nan nan -3 -3 -2 -3 -5 -5 -2 nan -6 -6 nan nan nan nan nan nan nan nan nan nan nan nan nan nan nan nan nan nan nan nan nan nan nan nan nan nan nan nan nan nan nan nan nan nan nan nan nan nan nan nan nan nan nan nan nan nan nan nan
nan nan nan nan nan nan nan nan nan nan nan nan nan nan nan nan nan nan nan nan nan nan nan nan nan nan nan -4 -2 -2 -1 -2 -2 -2 -3 nan nan nan nan nan nan nan nan nan nan nan nan nan nan nan nan nan nan nan nan nan nan nan nan nan nan nan nan nan nan nan nan nan nan nan nan nan nan nan nan nan nan nan nan nan nan nan nan nan nan nan
nan nan nan nan nan nan nan nan nan nan nan nan nan nan nan nan nan nan nan nan nan nan nan nan nan nan nan -3 -1 -1 -1 -1 -2 -2 -2 -2 -1 -1 -2 -4 -4 -16 nan nan nan nan nan nan nan nan nan nan nan nan nan nan nan nan nan nan nan nan nan nan nan nan nan nan nan nan nan nan nan nan nan nan nan nan nan nan nan nan nan nan nan nan
nan nan nan nan nan nan nan nan nan nan nan nan nan nan nan nan nan nan nan nan nan nan nan nan nan nan nan -4 -0 -0 -1 -2 -3 -3 -3 -1 -0 -0 -0 -0 -0 -0 -0 -5 -5 nan nan nan nan nan nan nan nan nan nan nan nan nan nan nan nan nan nan nan nan nan nan nan nan nan nan nan nan nan nan nan nan nan nan nan nan nan nan nan nan nan
nan nan nan nan nan nan nan nan nan nan nan nan nan nan nan nan nan nan nan nan nan nan nan nan nan nan nan -4 -0 -0 -1 nan nan nan nan -2 -1 -1 -0 -0 -0 -0 -0 -0 -0 -1 nan nan nan nan nan nan nan nan nan nan nan nan nan nan nan nan nan nan nan nan nan nan nan nan nan nan nan nan nan nan nan nan nan nan nan nan nan nan nan nan
nan nan nan nan nan nan nan nan nan nan nan nan nan nan nan nan nan nan nan nan nan nan nan nan nan nan nan -4 nan nan nan nan nan nan nan nan -3 -3 -0 -0 -0 -0 -0 -0 -0 -0 nan nan nan nan nan nan nan nan nan nan nan nan nan nan nan nan nan nan nan nan nan nan nan nan nan nan nan nan nan nan nan nan nan nan nan nan nan nan nan nan
nan nan nan nan nan nan nan nan nan nan nan nan nan nan nan nan nan nan nan nan nan nan nan nan nan nan nan nan -7 -7 nan nan nan nan nan nan nan nan -1 -0 -0 -0 -0 -0 -0 -0 -1 -1 -1 -3 nan nan nan nan nan nan nan nan nan nan nan nan nan nan nan nan nan nan nan nan nan nan nan nan nan nan nan nan nan nan nan nan nan nan nan nan
nan nan nan nan nan nan nan nan nan nan nan nan nan nan nan -0 -0 -0 nan nan nan nan nan nan nan nan nan nan nan nan nan nan nan nan nan nan nan nan -2 -0 -0 -0 -0 -0 -0 -0 -0 -0 -0 -1 -5 nan nan nan nan nan nan nan nan nan nan nan nan nan nan nan nan nan nan nan nan nan nan nan nan nan nan nan nan nan nan nan nan nan nan nan
nan nan nan nan nan nan nan nan nan nan nan nan nan nan nan -0 -0 -0 nan nan nan nan nan nan nan nan nan nan nan nan nan nan nan nan nan nan nan nan nan -1 -1 -0 -0 -0 -0 -0 -0 -0 -0 -0 -10 nan nan nan nan nan nan nan nan nan nan nan nan nan nan nan nan nan nan nan nan nan nan nan nan nan nan nan nan nan nan nan nan nan nan nan
nan nan nan nan nan nan nan nan nan nan nan nan nan nan nan nan nan nan nan -0 -0 -0 -0 nan nan nan nan nan nan nan nan nan nan nan nan nan nan nan nan nan nan -1 -0 -1 -1 -1 -0 -0 -0 -11 nan nan nan nan nan nan nan nan nan nan nan nan nan nan nan nan nan nan nan nan nan nan nan nan nan nan nan nan nan nan nan nan nan nan nan nan
nan nan nan nan nan nan nan nan nan nan nan -0 -0 -0 -0 nan -0 -0 -0 -0 -0 -0 -0 -0 -0 nan nan nan nan nan nan -0 nan nan nan nan nan nan nan -7 -7 -2 -1 -1 -1 -1 -0 -0 -0 -7 nan nan nan nan nan nan nan nan nan nan nan nan nan nan nan nan nan nan nan nan nan nan nan nan nan nan nan nan nan nan nan nan nan nan nan nan
nan nan nan nan nan nan nan nan nan nan -0 -0 -0 -0 -0 -0 -0 -0 -0 -0 -0 -0 -0 -0 -0 -0 nan nan nan nan -0 -0 -0 -0 -0 nan nan nan -14 -7 -7 -1 -1 -1 -1 -1 -0 -0 -0 -0 nan nan nan nan nan nan nan nan nan nan nan nan nan nan nan nan nan nan nan nan nan nan nan nan nan nan nan nan nan nan nan nan nan nan nan nan
-0 nan nan nan nan nan nan nan -0 -0 -0 -0 -0 -0 -0 -0 -0 -0 -0 -0 -0 -0 -0 -0 -0 -0 -0 -0 nan nan -0 -0 -0 -0 -0 -1 nan nan -12 -4 -4 -1 -2 -3 -3 -3 -1 -1 -1 -1 -8 nan nan nan nan nan nan nan nan nan nan nan nan nan nan nan nan nan nan nan nan nan nan nan nan nan nan nan nan nan nan nan nan nan nan nan
-0 nan nan -0 -0 -0 -0 -0 -0 -0 -0 -0 -0 -0 -0 -0 -0 -0 -0 -0 -0 -0 -0 -0 -0 -0 -0 -0 -0 -0 -0 -0 -0 -0 -0 -0 nan nan -13 -2 -2 -4 -3 -8 -8 -5 -3 -2 -2 -2 nan nan nan nan nan nan nan nan nan nan nan nan nan nan nan nan nan nan nan nan nan nan nan nan nan nan nan nan nan nan nan nan nan nan nan nan
-0 -0 -0 -0 -0 -0 -0 -0 -0 -0 -0 -0 -0 -0 -0 -0 -0 -0 -0 -0 -0 -0 -0 -0 -0 -0 -0 -0 -0 -0 -0 -0 -0 -0 -0 -1 nan nan -8 -4 -4 -2 -3 -8 -8 -8 -5 -3 -3 -3 -5 nan nan nan nan nan nan nan nan nan nan nan nan nan nan nan nan nan nan nan nan nan nan nan nan nan nan nan nan nan nan nan nan nan nan nan
-0 -0 -0 -0 -0 -0 -0 -0 -0 -0 -0 -1 -3 -3 -1 -1 -0 -0 -0 -1 -1 -1 -0 -0 -0 -0 -0 -0 -0 -0 nan -0 -0 -0 -1 -1 nan nan nan -4 -4 -0 -2 -5 -5 -6 -4 -4 -4 -5 -4 nan nan nan nan nan nan nan nan nan nan nan nan nan nan nan nan nan nan nan nan nan nan nan nan nan nan nan nan nan nan nan nan nan nan nan
-0 -0 -0 -0 -0 -0 -0 -0 -0 -0 -0 -0 -0 -0 -1 -2 -1 -1 -1 -0 -0 -0 -0 -0 -0 -0 -0 -0 -0 -0 nan -0 -0 -0 -1 -2 nan nan nan -5 -5 -2 -0 -1 -1 -3 -1 -2 -2 nan -5 nan nan nan nan nan nan nan nan nan nan nan nan nan nan nan nan nan nan nan nan nan nan nan nan nan nan nan nan nan nan nan nan nan nan nan
-0 -0 -0 -0 -0 -0 -0 -0 -0 -0 -0 -0 -0 -0 -1 -1 -0 -0 -0 -0 -0 -0 -0 -0 -0 -0 -0 -0 -0 -0 nan -0 -0 -0 -0 -1 nan nan nan -5 -5 -2 -0 -0 -0 -1 -1 -1 -1 nan nan nan nan nan nan nan nan nan nan nan nan nan nan nan nan nan nan nan nan nan nan nan nan nan nan nan nan nan nan nan nan nan nan nan nan nan
-0 -0 -0 -0 -0 -0 -0 -0 -0 -0 -0 -0 -0 -0 -0 -0 -0 -0 -0 -0 -0 -0 -0 -0 -0 -0 -0 -0 -0 -0 -0 nan -0 -0 -0 -3 nan nan nan -2 -2 -2 -1 -1 -1 -3 -5 -3 -3 nan nan -1 -2 -2 nan nan nan nan nan nan nan nan nan nan nan nan nan nan nan nan nan nan nan nan nan nan nan nan nan nan nan nan nan nan nan nan
-2 -1 -0 -0 -0 -0 -0 -0 -0 -0 -0 -0 -0 -0 -0 -0 -0 -0 -0 -0 -0 -0 -0 -0 -0 -0 -0 -0 -0 -0 -0 -0 nan nan -0 -3 -4 -4 nan -1 -1 -0 -0 -0 -0 -2 -7 -6 -6 -6 nan nan nan nan nan nan nan nan nan nan nan nan nan nan nan nan nan nan nan nan nan nan nan nan nan nan nan nan nan nan nan nan nan nan nan nan
-5 -6 -2 -0 -0 -0 -0 -0 -0 -0 -0 -0 -0 -0 -0 -0 -0 -0 -0 -0 -0 -0 -0 -0 -0 -0 -0 -0 -0 -0 -0 -0 -0 -0 -0 -0 -1 -1 -2 -2 -2 -0 -0 -1 -1 nan nan -9 -9 -13 nan nan nan nan nan nan nan nan nan nan nan nan nan nan nan nan nan nan nan nan nan nan nan nan nan nan nan nan nan nan nan nan nan nan nan nan
-0 -0 -0 -0 -0 -0 -0 -0 -0 -0 -0 -0 -0 -0 -0 -0 -0 -0 -0 -0 -0 -1 -0 -0 -0 -0 -1 -0 -0 -0 -0 -0 -0 -0 -0 -0 -1 -1 -1 -1 -1 -1 -0 -1 -1 -3 nan -9 -9 -21 nan nan nan nan nan nan nan nan -0 nan nan nan nan nan nan nan nan nan nan nan nan nan nan nan nan nan nan nan nan nan nan nan nan nan nan nan
-0 -0 -0 -0 -0 -0 -0 -0 -0 -0 -0 -0 -0 -0 -0 -0 -0 -0 -0 -0 -0 -0 -0 -0 -0 -1 -0 -0 -1 -1 -0 -0 -0 -0 -0 -0 -1 -1 -2 -3 -3 -1 -3 -1 -1 -0 -0 -4 -4 -9 -14 -14 nan nan nan nan nan nan nan nan nan nan nan nan nan nan nan nan nan nan nan nan nan nan nan nan nan nan nan nan nan nan nan nan nan nan
-0 -0 -0 -0 -0 -0 -0 -0 -0 -0 -0 -0 -0 -0 -0 -1 -0 -0 -0 -0 -0 -0 -0 -0 -0 -0 -0 -0 -1 -1 -0 -0 -0 -0 -1 -0 -3 -3 -4 -3 -3 -0 -1 -3 -3 -0 -0 -2 -2 -4 -6 -7 -7 -7 nan nan nan nan nan nan nan nan nan nan nan -1 -1 nan nan nan nan nan nan nan nan nan nan nan nan nan nan nan nan nan nan nan
-0 -0 -0 -0 -0 -0 -0 -0 -0 -0 -0 -0 -0 -0 -3 -2 -1 -1 -0 -0 -0 -0 -1 -1 -1 -0 -0 -1 -1 -1 -0 -0 -2 -2 -0 -1 -2 -2 -3 -3 -3 -1 -1 -2 -2 -0 -0 -1 -1 -2 -5 -4 -6 -6 -5 nan nan nan nan nan nan nan nan nan nan -2 -1 -1 -0 -0 -1 nan nan nan nan nan nan nan nan nan nan nan nan nan nan nan
-0 -0 -0 -0 -0 -0 -0 -0 -0 -0 -0 -0 -0 -0 -4 -3 -2 -2 -2 -1 -1 -1 -1 -1 -1 -1 -0 -0 -1 -1 -0 -0 -0 -0 -0 -0 -0 -0 -1 -2 -2 -1 -0 -1 -1 -1 -1 -1 -1 -2 -2 -2 -4 -4 -8 -11 -11 nan nan nan nan nan nan nan nan nan -2 -1 -0 -0 -0 -0 -2 -2 nan nan nan nan nan nan nan nan nan nan nan nan
-0 -0 -0 -0 -0 -0 -0 -0 -0 -0 -0 -0 -0 -0 -4 -6 -5 -5 -4 -2 -2 -1 -1 -1 -1 -1 -1 -1 -1 -1 -0 -0 -0 -0 -1 -0 -0 -0 -0 -1 -1 -1 -1 -0 -0 -1 -1 -2 -2 -2 -1 -1 -2 -2 -4 -11 -11 nan nan nan nan nan nan nan nan nan nan -1 -1 -1 -0 -0 -0 -0 -3 nan nan nan nan nan nan nan nan nan nan nan
-0 -0 -0 -0 -0 -0 -0 -0 -0 -0 -0 -0 -0 -0 -0 -3 -5 -5 -0 -3 -3 -3 -3 -2 -2 -2 -1 -2 -2 -2 -1 -0 -1 -1 -1 -1 -0 -0 -0 -1 -1 -1 -2 -0 -0 -0 -1 -1 -1 -1 -1 -1 -1 -1 -1 -4 -4 -5 -4 -3 -3 nan nan nan nan nan nan nan -1 -1 -1 -0 -0 -0 -1 nan nan nan nan nan nan nan nan nan nan nan
-0 -0 -0 -0 -0 -0 -0 -0 -0 -0 -0 -0 -0 -0 -0 -1 -5 -5 -5 -4 -4 -1 -2 -3 -3 -3 -1 -2 -2 -2 -1 -0 -1 -1 -0 -1 -1 -1 -1 -1 -1 -1 -2 -0 -0 -0 -0 -0 -0 -0 -1 -0 -1 -1 -1 -2 -2 -2 -2 -1 -1 -3 nan nan nan nan nan nan nan nan nan -2 -0 -0 -0 -1 -0 -0 -2 nan nan nan nan nan nan nan
-0 -1 -0 -0 -0 -0 -0 -0 -0 -0 -0 -0 -0 -0 -0 -0 -4 -4 -6 -2 -2 -1 -3 -3 -3 -6 -3 -1 -1 -1 -1 -2 -1 -1 -1 -3 -1 -1 -1 -1 -1 -2 -1 -1 -1 -0 -0 -0 -0 -1 -1 -1 -0 -0 -1 -2 -2 -0 -0 -0 -0 -1 -1 -2 -2 nan nan nan nan nan nan nan -1 -1 -1 -0 -0 -0 -0 -1 -1 nan nan nan nan nan
-0 -0 -0 -0 -0 -0 -0 -0 -0 -0 -0 -1 -3 -3 -0 -3 -1 -1 -0 -7 -7 -5 -1 -1 -1 -5 -4 -3 -1 -1 -1 -3 -2 -2 -1 -1 -1 -1 -0 -1 -1 -1 -1 -1 -1 -1 -0 -1 -1 -1 -1 -1 -1 -1 -2 -1 -1 -1 -0 -0 -0 -2 -2 -1 -1 -2 nan nan nan nan nan nan -2 -2 -1 -1 -0 -0 -0 -0 -0 -2 nan nan nan -0
-0 -0 -0 -0 -0 -0 -0 -0 -0 -0 -0 -1 -0 -0 -0 -3 -13 -13 -12 -12 -12 -12 -6 -4 -4 -3 -4 -7 -2 -2 -2 -7 -3 -3 -5 -0 -0 -0 -1 -1 -1 -1 -1 -1 -1 -1 -0 -0 -0 -1 -1 -2 -1 -1 -1 -1 -1 -3 -1 -0 -0 -1 -1 -2 -2 -2 -1 nan nan nan nan nan nan nan -3 -2 -1 -1 -1 -0 -0 -0 -1 -0 -0 nan
-0 -0 -0 -0 -0 -0 -0 -0 -0 -0 -0 -0 -0 -0 -1 -2 -3 -3 -2 -4 -4 -4 -2 -5 -5 -4 -3 -6 -3 -3 -5 -5 -6 -6 nan nan nan nan -1 -1 -1 -1 -1 -0 -0 -1 -1 -0 -0 -0 -1 -1 -1 -1 -1 -0 -0 -2 -3 -1 -1 -1 -0 -3 -3 -1 -1 nan nan nan nan nan -2 -2 -4 -2 -1 -1 -2 -1 -1 -1 -1 -0 -0 -0
-0 -0 -0 -0 -0 -0 -0 -0 -0 -0 -0 -0 -0 -0 -4 -6 -1 -1 -1 -1 -1 -1 -3 -4 -4 -2 -1 -2 -0 -0 -5 -10 -4 -4 -9 nan nan nan -0 -0 -0 -1 -1 -0 -0 -0 -1 -1 -1 -1 -1 -1 -1 -1 -1 -0 -0 -1 -3 -2 -2 -1 -1 -2 -2 -0 nan nan -0 -0 -0 -1 -2 -2 -2 -2 -2 -2 -2 -2 -2 nan -2 -0 -0 -0
-0 -0 -0 -0 -0 -0 -0 -0 -0 -0 -3 -0 -0 -0 -5 -9 -3 -3 -2 -1 -1 -1 -2 -3 -3 -3 -1 -1 -0 -0 -0 -5 -7 -7 -6 -5 nan nan -0 -0 -0 -1 -1 -0 -0 -0 -1 -1 -1 -1 -1 -1 -1 -1 -1 -1 -1 -1 -1 -2 -2 -2 -1 -1 -1 -0 -0 -0 -0 -0 -1 -1 -1 -1 -2 -1 -1 -1 -1 -0 -0 -0 -1 -0 -0 -0
-0 -0 -0 -0 -0 -0 -3 -0 -0 -0 -0 -0 -7 -7 -8 -4 -4 -4 -1 -1 -1 -1 -2 -3 -3 -2 -1 -1 -0 -0 -0 -0 -4 -4 -8 -7 nan nan -0 -0 -0 -0 -0 -0 -0 -1 -0 -0 -0 -1 -2 -1 -0 -0 -1 -1 -1 -1 -1 -2 -2 -2 -2 -1 -1 -0 -1 -1 -1 -1 -1 -1 -1 -1 -1 -1 -1 -1 -1 -0 -0 -0 -0 -0 -0 -0
-1 -1 -0 -2 -2 -0 -0 -0 -0 -0 -0 -0 -2 -2 -3 -1 -3 -3 -1 -1 -1 -0 -4 -5 -5 -2 -2 -1 -1 -1 -1 -0 -0 -0 -0 -4 -3 -3 -0 -0 -0 -0 -0 -1 -1 -1 -1 -1 -1 -1 -1 -1 -0 -0 -1 -1 -1 -0 -0 -1 -1 -2 -1 -1 -1 -2 -1 -0 -1 -1 -1 -0 -0 -0 -0 -0 -1 -1 -1 -1 -1 -0 -0 -0 -0 -0
-1 -1 -1 -2 -2 -1 -2 -2 -1 -1 -0 -0 -0 -0 -2 -0 -1 -1 -1 -1 -1 -0 -2 -3 -3 -2 -2 -1 -2 -2 -1 -0 -0 -0 -0 -2 -2 -2 -0 -0 -0 -0 -0 -1 -1 -1 -1 -2 -2 -1 -0 -0 -0 -0 -1 -1 -1 -1 -1 -1 -1 -1 -1 -2 -2 -2 -2 -1 -0 -0 -0 -0 -0 -0 -0 -0 -0 -0 -1 nan nan nan -0 -0 -0 -0
-0 -1 -0 -2 -2 -1 -1 -3 -2 -2 -2 -0 -1 -1 -2 -3 -2 -2 -0 -1 -1 -0 -1 -1 -1 -3 -2 -1 -2 -2 -1 -0 -0 -0 -0 -0 -1 -1 -3 -0 -0 -0 -0 -0 -0 -0 -0 -2 -2 -1 -0 -0 -1 -1 -1 -1 -1 -1 -1 -1 -1 -1 -1 -1 -1 -1 -2 -2 -1 -1 -0 -0 -0 -0 -0 -0 -1 -1 -1 nan nan nan nan nan nan -0
-1 -2 -0 -1 -1 -2 -2 -3 -3 -3 -2 -2 -3 -3 -1 -3 -0 -0 -1 -0 -0 -0 -0 -1 -1 -2 -2 -1 -1 -1 -1 -2 -1 -1 -0 -0 -1 -1 -4 -3 -3 -1 -0 -0 -0 -0 -0 -0 -0 -0 -0 -0 -0 -0 -1 -0 -0 -1 -1 -1 -1 -2 -1 -1 -1 -1 -2 -1 -0 -0 -0 -0 -0 -0 -0 -0 -1 -1 -1 -2 -2 nan nan nan nan -0
-1 -1 -1 -0 -0 -2 -0 -1 -2 -2 -1 -2 -2 -2 -3 -3 -9 -9 -4 -1 -1 -1 -1 -1 -1 -2 -2 -2 -1 -1 -3 -3 -2 -2 -2 -2 -1 -1 -1 -2 -2 -1 -0 -0 -0 -0 -0 -0 -0 -0 -0 -0 -0 -0 -0 -0 -0 -1 -2 -1 -1 -2 -2 -1 -1 -1 -1 -1 -0 -0 -0 -0 -0 -0 -0 -0 -0 -0 -1 -1 -1 nan nan nan nan -0
-1 -3 -1 -2 -2 -4 -3 -2 -1 -1 -0 -0 -2 -2 -3 -4 -7 -7 -5 -2 -2 -0 -1 -2 -2 -1 -2 -1 -2 -2 -2 -4 -2 -2 -2 -2 -0 -0 -1 -2 -2 -1 -0 -0 -0 -0 -0 -0 -0 -0 -0 -0 -0 -0 -0 -0 -0 -1 -1 -1 -1 -2 -2 -0 -0 -1 -3 -1 -1 -1 -0 -0 -0 -0 -0 -0 -0 -0 -0 -1 -1 -2 nan nan nan nan
Wind_Speed
6 7 7 9 10 9 9 11 12 12 11 10 10 10 10 11 11 11 12 11 12 12 11 12 13 15 16 16 15 12 10 8 7 7 8 9 10 11 13 14 16 17 19 20 21 22 22 21 21 20 20 21 21 21 22 23 25 26 27 27 27 26 25 25 25 26 27 27 27 27 27 26 25 24 24 24 25 25 25 25 24 24 23 24 25 26
7 7 7 9 10 9 8 11 12 11 11 11 11 11 11 12 11 10 10 11 11 11 10 11 13 15 17 16 16 15 13 10 6 5 5 6 7 9 11 12 14 16 17 19 21 22 24 24 24 23 22 22 22 22 22 23 23 25 26 26 26 26 26 26 26 26 27 27 28 27 27 27 26 25 25 25 25 25 25 25 24 24 24 25 26 27
7 7 7 8 9 9 8 10 11 11 11 11 11 11 13 13 11 9 9 9 10 10 10 10 11 13 15 15 16 18 17 14 10 6 5 5 6 7 9 11 13 14 16 18 20 22 24 25 25 25 25 24 24 24 23 23 23 23 24 25 25 26 26 26 26 26 26 27 27 27 27 27 27 26 26 26 26 26 26 26 25 25 25 26 27 28
7 7 7 7 7 7 8 9 9 9 9 10 11 12 13 11 9 9 9 9 9 9 9 10 10 11 11 12 15 18 20 19 16 11 7 5 5 6 8 10 12 13 15 17 18 20 22 24 25 26 26 26 26 25 24 23 22 22 23 24 25 26 26 27 26 26 25 26 26 27 27 27 27 27 27 27 27 27 27 27 26 26 26 27 28 28
6 6 7 7 6 6 7 8 8 8 8 9 9 10 10 8 8 8 9 9 9 9 9 9 9 9 9 10 13 16 20 21 19 16 12 8 6 6 7 9 11 13 14 16 17 19 21 22 24 25 26 27 27 26 25 24 23 22 22 24 25 26 27 27 27 26 24 24 25 26 27 27 27 27 27 28 28 28 28 28 28 27 27 28 28 29
6 6 6 6 5 5 6 7 7 7 7 8 8 8 7 7 7 7 8 9 9 9 8 8 8 8 8 9 12 15 18 20 19 17 15 11 8 7 7 8 10 12 14 16 17 18 19 21 22 23 25 26 26 27 27 25 24 23 22 24 25 27 28 28 27 25 24 23 23 24 26 27 27 27 27 28 28 29 29 29 29 29 28 29 29 29
6 6 6 5 5 5 5 5 6 6 7 7 7 7 7 6 6 7 7 7 7 7 8 8 7 7 7 8 10 13 15 16 16 16 14 12 10 8 7 8 10 11 14 15 17 18 19 20 21 22 23 24 26 27 28 27 26 24 23 24 25 27 29 29 28 27 25 22 22 22 24 25 26 27 27 27 28 29 29 29 29 29 29 29 30 30
7 6 6 5 5 5 5 5 5 6 7 7 7 7 7 7 6 6 7 7 6 7 7 8 8 8 7 8 9 10 11 12 12 13 12 11 9 8 7 7 8 10 12 14 16 18 19 20 20 21 22 23 24 26 28 28 27 26 24 23 25 27 30 30 30 29 27 25 22 21 22 23 25 26 27 27 28 28 29 29 30 30 30 30 30 30
7 7 6 6 5 6 6 5 5 5 6 6 7 7 7 7 7 7 7 6 6 6 6 7 8 8 8 8 8 8 8 9 10 11 12 12 11 9 7 6 6 8 10 12 14 16 18 19 20 20 21 22 23 25 26 27 27 26 24 23 24 26 29 31 32 31 30 28 26 23 21 22 23 25 26 27 28 28 28 29 29 30 30 30 30 30
7 7 7 6 5 5 5 5 5 5 6 6 6 6 6 7 8 9 9 8 7 6 6 7 8 8 9 8 8 7 8 9 10 11 13 14 15 14 11 8 6 6 7 9 11 13 15 17 18 20 20 21 22 23 25 26 26 26 25 23 23 24 26 28 30 32 32 31 29 27 24 22 23 24 25 26 27 28 28 28 29 29 30 30 30 30
7 6 6 6 5 5 4 5 5 5 6 6 6 5 5 6 7 8 10 9 9 8 7 6 7 7 8 8 7 7 7 8 9 11 12 14 15 15 13 10 8 6 6 6 8 10 12 14 16 17 19 20 21 22 23 23 24 24 24 24 23 22 22 24 27 29 31 31 31 30 27 25 24 24 24 25 26 27 28 28 28 29 29 29 29 29
6 6 5 5 5 5 5 5 4 5 5 5 6 6 6 6 6 7 8 9 9 9 8 7 6 6 6 6 6 6 7 7 8 9 10 11 12 12 12 10 9 7 6 5 5 6 9 11 13 15 16 18 19 20 21 21 21 22 23 24 23 22 21 21 23 25 28 30 31 31 30 28 26 25 24 24 25 26 27 28 28 28 28 28 29 29
6 5 5 5 5 5 5 5 5 5 5 5 6 7 6 6 6 6 6 7 8 8 8 8 7 6 5 4 4 5 6 6 7 7 8 8 9 9 9 10 10 8 7 5 3 3 5 8 10 11 13 15 16 18 20 20 20 21 22 23 23 22 21 20 20 22 24 26 28 29 30 29 28 27 26 25 25 25 26 27 27 27 27 28 28 28
6 6 6 6 6 6 5 6 6 6 6 5 6 6 6 6 6 6 6 7 7 7 8 8 8 6 4 3 3 4 5 6 6 6 7 7 7 8 8 9 9 9 8 6 4 3 2 4 5 7 9 11 14 16 17 19 20 21 22 23 23 22 21 19 19 19 21 23 25 27 28 28 28 27 27 26 25 24 25 25 26 26 26 27 27 28
6 6 7 7 6 6 5 6 6 6 6 5 6 6 6 6 6 7 7 8 8 8 7 8 8 6 4 2 2 3 5 5 6 6 7 7 7 7 7 8 8 8 8 7 6 4 2 2 3 4 5 8 10 11 12 15 18 20 21 22 23 23 23 21 19 19 19 20 22 24 25 26 26 26 27 27 26 25 25 25 25 25 26 26 26 27
6 6 7 7 7 6 5 5 5 6 6 6 6 6 6 7 6 6 7 8 8 7 7 8 8 7 4 2 1 3 5 5 5 6 6 6 6 6 6 7 8 8 8 7 7 5 4 2 2 3 4 6 8 9 10 12 15 18 19 21 22 24 24 23 22 21 20 20 20 21 22 23 24 25 25 26 26 26 26 26 26 26 26 26 26 26
6 6 6 7 7 7 6 5 5 6 6 6 6 6 6 6 6 6 6 7 6 6 6 6 7 7 5 3 2 3 5 5 5 6 6 6 5 5 5 6 7 7 7 7 7 6 6 4 3 2 3 5 7 9 10 11 13 15 17 19 21 22 24 24 24 23 22 21 20 19 20 21 22 23 23 24 24 25 26 26 26 26 26 26 26 26
6 6 6 7 7 6 6 6 5 5 6 6 6 6 6 6 6 6 6 6 6 6 6 6 5 5 6 5 4 4 5 6 6 6 7 7 6 4 4 5 6 7 7 7 6 6 6 6 5 4 3 4 6 9 11 12 13 14 16 17 19 21 22 23 24 24 24 23 22 21 19 19 20 21 22 22 23 24 24 25 25 25 25 26 26 26
6 6 6 6 6 6 6 6 6 5 6 6 6 7 7 6 6 6 6 6 6 6 6 6 6 6 6 6 6 6 6 6 6 7 7 7 6 4 3 4 5 6 6 6 6 6 6 6 6 5 4 4 6 8 11 12 13 14 15 17 18 20 21 22 23 24 24 24 24 23 21 20 20 20 21 22 22 23 24 24 24 25 25 25 26 26
7 7 6 6 6 7 7 6 6 5 6 6 7 7 7 7 6 6 6 6 6 6 6 7 7 7 6 7 8 7 7 7 7 7 7 7 7 5 3 3 4 5 6 5 5 5 5 6 6 6 6 5 5 6 9 11 13 14 15 16 17 19 20 21 22 23 24 25 24 24 23 21 21 20 21 22 23 24 24 25 25 26 25 26 26 27
8 8 7 6 6 6 6 5 6 6 7 7 7 7 7 6 6 6 6 6 6 6 6 7 7 7 6 8 8 8 7 7 6 6 5 6 6 5 3 3 3 5 6 5 5 5 5 6 6 7 7 7 7 6 6 8 11 13 14 15 16 17 18 20 21 22 23 24 24 24 24 23 22 22 22 22 23 24 25 26 26 27 27 27 27 27
7 8 8 8 7 7 7 7 8 8 8 8 7 6 6 6 6 7 7 7 7 7 7 7 7 8 8 9 10 9 8 7 6 6 5 5 6 5 3 2 3 4 5 5 4 4 5 5 5 6 7 8 9 9 8 7 8 10 12 13 15 16 17 18 19 20 22 23 23 24 24 23 23 23 23 23 23 24 25 26 26 27 28 28 27 27
8 8 8 8 8 7 7 7 7 7 7 7 7 6 5 6 6 7 7 7 7 8 8 8 8 9 9 9 10 9 8 7 6 5 4 6 6 6 3 3 3 4 5 4 4 4 4 4 5 5 7 8 9 10 10 9 8 8 9 11 12 14 15 16 18 19 20 21 22 23 24 24 24 23 23 23 23 23 24 24 25 26 27 27 28 28
9 9 9 8 7 7 7 7 7 6 6 6 6 6 6 6 7 7 7 7 7 7 8 8 9 9 9 9 9 9 7 6 6 5 4 5 6 5 3 3 4 6 6 5 5 4 4 4 4 5 6 7 9 9 10 9 9 8 8 9 10 11 13 14 16 17 19 20 21 22 23 23 24 23 23 23 23 23 23 23 23 24 25 26 26 27
8 8 8 8 8 8 8 8 8 8 8 7 6 6 7 7 8 8 7 7 7 7 8 8 9 9 8 8 7 7 6 5 5 4 4 4 5 6 4 4 5 6 6 6 5 5 5 5 5 5 5 6 7 8 9 9 8 8 7 7 8 9 10 12 13 15 17 18 19 21 22 23 23 23 23 22 22 22 22 22 22 23 23 23 24 25
11 11 11 12 13 15 16 16 15 15 15 12 9 8 7 8 8 7 7 7 7 7 8 8 9 8 7 6 6 6 5 4 4 4 4 4 5 5 5 4 4 5 6 6 5 5 5 6 6 6 5 5 6 6 7 7 7 6 6 6 6 7 7 9 10 12 14 15 17 18 20 21 22 22 23 22 22 22 22 22 22 23 23 23 23 23
17 17 18 19 20 20 20 20 21 21 21 19 16 13 10 8 8 8 8 8 7 7 8 8 8 8 7 7 6 5 5 4 4 4 4 4 5 5 5 4 4 5 6 5 5 4 5 6 6 6 5 5 4 4 5 5 6 6 6 6 6 6 6 7 8 9 11 13 14 16 17 19 20 21 22 22 22 22 22 22 22 23 23 22 21 20
18 19 20 20 21 21 21 21 21 21 22 21 20 18 13 9 8 9 9 8 7 7 8 8 8 8 7 7 6 6 6 5 5 5 5 4 5 5 5 4 4 4 5 4 4 4 4 5 5 5 5 4 3 3 4 5 5 6 6 6 6 6 6 6 7 8 9 10 12 13 15 16 18 19 20 21 22 22 22 22 22 22 21 19 16 15
15 17 18 19 19 20 20 19 19 19 19 19 19 17 12 9 8 8 9 8 7 8 8 8 8 8 8 7 7 7 7 6 6 5 5 4 4 4 4 3 3 3 3 4 4 4 4 3 3 3 3 3 3 3 3 4 4 4 5 5 6 6 6 6 6 7 7 8 10 11 13 14 16 17 18 19 20 21 22 22 22 20 17 15 13 12
11 13 14 15 15 15 15 14 14 15 16 17 16 15 11 8 8 8 8 7 7 7 8 8 8 8 7 7 7 7 6 5 4 3 3 3 4 4 3 3 2 2 2 3 4 4 4 2 2 2 1 2 2 2 2 3 3 3 4 4 5 5 5 6 6 6 7 7 8 10 11 12 14 15 16 17 19 20 21 22 20 17 12 12 11 11
11 11 11 11 11 11 10 10 10 10 12 13 13 12 10 8 8 8 7 7 7 7 8 8 8 7 6 6 6 6 5 3 2 1 1 2 3 3 4 4 3 3 2 2 3 4 4 3 2 1 1 1 2 2 2 2 2 3 3 3 4 4 4 5 5 6 6 6 7 8 10 11 12 13 15 16 17 18 20 21 20 16 12 11 11 11
10 10 10 10 9 9 8 8 8 8 8 9 9 9 8 8 8 7 7 7 7 7 7 8 8 7 6 6 6 6 5 4 3 2 2 3 3 4 5 5 5 4 3 2 3 3 4 4 3 2 1 2 3 3 3 3 3 3 3 3 3 3 3 3 4 4 5 5 6 7 8 9 10 12 13 14 16 17 19 20 19 16 12 11 11 11
10 9 9 9 9 9 8 8 8 8 7 7 7 7 7 7 8 8 7 7 7 7 7 8 8 7 7 7 7 7 6 6 5 4 4 4 4 5 5 5 5 5 4 3 3 3 4 4 4 4 4 3 3 3 4 3 3 3 3 3 3 3 3 3 3 3 4 4 4 5 6 7 8 9 11 12 14 15 17 18 18 16 13 11 10 10
10 10 10 10 9 9 9 9 9 8 8 8 7 7 7 7 7 7 7 7 7 7 7 7 7 7 7 7 7 7 7 7 7 6 5 4 4 5 5 6 6 5 5 4 3 3 4 5 5 4 4 4 4 3 3 3 3 3 3 3 3 3 3 3 2 3 3 3 3 3 3 4 5 6 8 9 11 12 14 16 17 17 16 12 10 9
10 10 10 10 10 10 10 10 9 9 9 8 8 8 7 7 7 7 7 7 7 7 7 7 7 7 7 7 7 7 7 7 6 6 5 5 4 4 5 5 5 5 5 5 4 3 4 5 5 5 5 5 4 4 3 2 2 2 2 3 3 3 3 3 3 3 3 3 3 3 3 3 3 3 4 6 8 9 12 14 16 17 17 15 13 10
10 10 10 10 10 10 10 10 10 9 9 9 8 7 7 7 7 7 7 7 7 8 8 8 8 8 7 7 7 8 8 8 7 7 6 5 4 4 4 5 5 5 6 6 5 4 4 5 5 6 6 6 5 4 3 2 2 2 2 2 3 3 3 3 3 3 3 3 3 3 3 3 3 3 3 4 6 7 9 12 14 16 17 17 16 14
10 10 10 9 9 9 10 10 9 9 9 9 8 7 7 7 7 7 7 7 7 8 8 9 9 9 10 9 8 9 9 8 8 8 8 6 5 5 5 5 6 6 6 6 6 5 5 5 6 6 6 6 5 5 4 3 2 2 2 2 2 3 3 3 2 3 3 3 3 3 3 3 3 3 3 3 4 5 7 9 11 13 16 17 17 17
10 9 9 9 9 9 10 9 9 9 9 8 8 8 8 7 7 7 7 8 8 9 9 9 9 10 12 12 12 11 11 11 11 10 10 8 7 6 7 7 7 7 7 6 6 6 6 6 6 6 6 6 6 6 6 4 3 3 3 3 3 3 3 3 3 2 2 3 3 3 3 3 3 3 3 3 3 3 4 5 6 8 11 13 15 17
9 9 9 10 10 9 9 9 9 9 9 8 8 8 8 8 8 8 7 8 9 9 10 9 9 10 12 13 14 14 13 13 13 12 11 10 9 8 8 8 8 8 7 7 6 6 7 7 7 6 5 6 6 7 6 4 4 3 3 3 4 4 3 3 3 2 2 3 3 4 4 4 4 4 4 3 3 3 3 3 3 4 6 6 9 12
8 9 10 10 10 10 10 10 9 9 9 9 9 9 8 8 8 8 8 8 8 9 10 10 10 10 10 11 12 12 13 12 12 12 11 10 9 8 8 8 8 8 7 7 7 7 7 8 8 7 7 6 6 6 6 5 4 3 3 4 4 4 3 3 3 3 3 3 3 4 5 4 4 4 4 4 4 4 4 3 3 3 4 4 4 5
10 10 10 10 10 10 11 10 10 9 9 9 9 8 8 7 7 6 6 6 7 7 8 9 9 9 9 10 10 11 12 11 11 11 10 11 11 11 9 8 8 8 7 7 7 7 8 8 8 8 8 7 7 7 7 7 6 5 5 5 5 4 4 4 4 4 3 4 4 4 5 5 5 5 4 4 4 4 4 4 4 3 3 4 4 4
11 11 10 9 9 9 9 9 10 10 10 9 9 9 8 8 7 7 7 7 7 7 7 6 7 8 9 9 9 9 10 10 10 10 9 10 11 11 10 9 8 7 7 7 8 8 8 8 8 8 8 7 7 7 7 8 8 7 6 6 6 6 6 5 4 3 3 3 4 4 5 5 4 4 4 4 4 4 3 4 4 4 3 3 4 4
10 10 9 9 9 9 10 10 10 10 9 9 9 9 8 8 8 8 8 8 8 8 7 7 7 7 9 9 9 8 8 8 9 10 10 10 11 12 12 11 10 8 7 7 8 8 8 8 8 8 8 7 6 7 8 8 8 7 7 6 5 4 4 3 3 2 3 3 3 3 4 4 4 4 4 4 4 4 4 4 4 4 4 4 4 4
9 9 9 9 9 9 9 9 9 9 9 9 10 9 9 8 8 8 8 8 8 8 8 7 7 7 9 9 9 8 8 8 9 10 10 10 11 11 12 13 12 10 8 8 8 7 7 8 8 8 7 6 7 7 8 8 8 8 7 7 6 5 5 4 3 3 3 3 4 4 4 4 4 4 4 4 4 4 4 4 4 5 5 5 4 4
9 9 9 8 8 8 8 9 9 9 9 9 9 9 8 8 8 8 8 8 8 8 8 6 5 6 8 9 8 7 7 8 8 8 8 9 10 12 12 12 11 10 9 9 8 7 6 7 7 7 6 6 7 7 8 8 8 8 8 7 7 7 6 5 5 5 5 5 4 5 4 4 4 4 5 5 4 4 4 4 4 5 5 4 4 4
8 8 8 8 8 9 10 9 9 9 9 9 9 8 8 8 8 8 8 8 8 8 7 6 6 6 8 8 7 7 7 7 7 7 6 6 7 9 10 10 10 9 8 8 8 8 7 7 7 6 5 6 7 7 8 8 8 9 8 8 7 7 6 6 6 6 5 5 5 5 5 5 4 5 5 5 5 5 4 4 4 4 4 4 4 4
8 8 8 8 8 8 8 8 8 9 9 9 9 9 8 8 8 8 8 8 8 8 7 7 7 8 10 9 8 7 8 8 7 7 6 6 6 6 7 8 8 9 8 8 7 8 8 8 7 6 6 6 7 7 7 8 8 8 8 7 7 7 7 6 6 5 5 5 5 5 5 4 4 5 6 6 6 5 4 4 4 4 4 4 4 4
8 8 8 8 8 8 8 8 8 8 9 9 9 9 9 9 9 9 8 8 8 8 8 8 8 9 10 9 9 8 9 9 8 7 7 7 6 6 5 5 6 7 8 8 8 8 8 8 8 8 8 7 7 7 8 8 8 8 8 7 7 7 7 7 6 5 5 5 5 5 5 4 4 5 5 5 6 5 5 4 3 3 3 3 4 4
8 8 8 8 8 8 8 8 8 8 9 9 9 9 9 9 10 10 8 8 8 8 8 8 9 9 9 9 9 9 9 9 8 7 7 6 6 5 5 5 5 5 6 7 7 7 7 8 9 10 9 8 8 8 8 8 8 7 7 7 7 7 7 6 6 6 5 5 6 6 5 4 4 4 4 5 6 6 6 4 4 3 3 3 3 4
8 8 8 9 9 9 9 9 9 9 9 9 9 9 8 8 8 8 7 8 8 8 8 8 8 9 9 10 10 9 9 8 8 7 7 6 5 5 5 5 5 5 5 5 5 5 5 6 8 10 11 12 11 10 9 9 8 7 7 7 6 6 6 6 6 6 5 5 5 5 5 5 4 4 4 5 6 6 6 5 4 3 3 3 3 4
9 8 9 9 9 9 9 9 9 9 9 9 9 9 8 8 7 7 7 7 8 8 8 8 8 9 10 10 10 9 9 8 8 8 7 6 5 5 6 5 5 5 5 5 5 5 4 4 5 7 10 14 16 14 11 10 9 8 7 7 6 5 6 6 6 6 5 5 4 4 4 4 4 4 4 4 5 6 6 6 5 4 3 3 3 3
Wind_Direction
319 321 322 328 329 328 328 336 338 338 338 339 340 339 338 337 336 336 339 341 343 345 348 350 351 350 348 341 336 329 318 298 275 254 238 224 213 206 201 202 204 206 209 207 205 203 203 206 211 218 226 232 234 230 222 214 208 204 202 203 205 209 212 209 204 198 195 194 194 193 193 192 191 190 190 190 191 193 195 196 196 195 193 192 192 192
322 321 322 329 330 328 326 334 337 338 338 337 337 337 337 337 336 337 339 341 342 343 346 350 353 353 351 346 340 335 330 320 302 271 245 229 216 208 202 201 203 206 209 210 208 205 202 202 205 211 219 227 233 235 233 225 217 210 205 204 204 207 212 212 209 204 198 196 194 193 192 191 191 190 190 190 191 193 194 196 196 196 194 194 194 194
322 322 323 329 330 329 326 332 334 335 336 334 333 334 336 337 338 339 340 340 340 341 345 350 353 354 352 348 342 337 334 328 318 298 269 242 223 213 207 205 204 206 208 211 211 209 204 201 202 206 213 220 227 232 236 232 226 218 211 206 205 206 211 214 214 210 203 199 196 193 192 191 190 190 190 190 191 193 194 196 197 197 196 196 195 195
320 321 324 325 326 326 325 328 329 331 332 330 331 333 335 337 338 339 340 339 338 339 341 347 351 353 351 348 343 338 335 330 324 313 296 269 238 221 213 209 207 207 208 210 212 212 209 204 203 204 208 214 220 226 232 234 232 226 218 210 206 206 210 214 215 214 210 203 198 195 192 191 191 190 190 191 192 193 194 196 197 198 198 198 197 197
319 320 322 322 322 322 324 324 325 327 328 328 330 332 334 335 337 337 339 338 339 339 340 343 346 348 348 346 341 336 334 330 326 320 309 294 268 240 223 216 212 209 208 209 211 212 212 208 206 205 206 211 216 221 227 232 233 231 224 216 210 207 208 212 215 216 215 209 202 197 194 192 191 191 191 192 192 193 194 196 197 198 199 199 199 198
316 317 317 317 318 319 320 322 326 329 329 330 330 330 330 332 334 337 337 338 339 339 340 341 340 340 341 342 338 334 332 330 328 323 316 305 289 266 242 227 218 214 211 209 209 210 211 211 209 208 207 209 213 217 222 228 231 232 229 221 213 208 207 210 214 217 218 214 208 202 197 194 192 191 192 192 193 194 195 196 197 198 199 200 200 200
312 313 313 313 313 314 316 319 327 333 334 331 329 328 330 332 335 336 335 334 335 337 338 338 337 335 335 337 335 334 333 332 330 326 320 311 299 282 261 242 228 219 214 211 210 209 209 210 211 210 209 210 212 215 219 223 227 230 230 224 217 210 207 209 212 215 218 217 214 208 202 197 194 193 192 193 194 195 196 197 198 199 200 200 201 201
310 312 314 315 314 314 314 318 328 335 336 331 329 328 331 334 335 334 331 331 334 337 339 338 338 337 335 335 335 336 337 336 335 333 327 321 310 294 274 256 239 227 219 215 212 210 209 209 210 211 211 212 213 214 217 220 222 225 226 224 218 212 208 208 210 213 216 217 216 213 207 202 198 195 194 194 194 195 196 198 198 199 200 201 201 202
307 310 313 314 315 315 316 318 326 334 335 330 327 327 330 335 335 333 332 333 337 340 341 339 338 336 334 333 335 338 340 341 340 338 335 333 327 316 298 278 254 236 224 218 214 211 209 209 210 211 212 212 213 215 216 218 219 220 222 222 218 213 209 208 209 211 213 215 216 214 210 206 202 199 196 195 195 196 197 198 199 199 200 201 201 202
304 306 309 311 312 313 314 316 323 330 331 323 321 323 329 336 337 335 333 334 336 340 342 341 337 334 331 332 335 340 343 343 341 339 338 335 332 326 318 306 286 257 236 224 217 213 211 210 210 211 211 212 214 215 216 216 217 218 219 220 219 216 211 208 208 208 210 212 214 213 211 208 205 202 199 198 197 197 198 200 200 200 200 201 201 202
307 308 309 310 312 312 311 313 317 323 326 321 320 323 333 343 342 338 333 332 333 336 337 337 335 331 328 329 335 342 347 346 344 341 339 336 332 328 323 315 302 283 261 240 224 216 212 212 211 211 212 213 213 214 215 216 216 216 218 219 220 219 216 212 209 208 207 209 211 211 211 208 206 203 202 201 200 199 200 201 201 201 200 201 201 202
309 311 312 312 313 313 313 314 316 320 325 328 330 334 340 347 345 337 329 327 329 331 332 329 327 324 321 323 333 344 351 350 347 343 339 336 336 334 331 326 317 303 284 262 237 221 214 214 213 213 214 214 215 215 215 215 215 215 216 218 219 220 219 216 213 210 208 208 208 209 209 207 205 202 200 201 201 201 201 201 201 201 200 200 201 202
308 310 310 310 311 313 317 321 324 328 334 338 339 337 336 338 337 332 323 321 323 326 326 323 320 318 315 321 335 348 353 351 347 342 337 335 335 336 334 331 327 322 311 296 272 240 217 215 215 216 217 218 218 217 216 216 215 215 215 215 216 217 218 218 216 214 211 208 207 207 207 205 202 200 198 199 201 202 203 203 202 202 201 201 201 202
309 311 310 309 310 314 319 324 327 329 333 336 336 332 328 328 328 327 322 320 321 322 321 316 315 315 315 330 352 359 356 352 347 341 335 331 330 331 330 327 324 322 319 312 302 279 226 213 217 220 220 222 222 220 219 217 216 214 214 214 214 214 215 216 216 216 214 211 209 206 205 203 201 198 196 197 199 201 203 204 204 203 202 202 202 202
311 312 310 309 310 314 319 323 324 325 327 329 327 324 322 323 326 328 326 323 322 322 320 316 314 313 312 331 4 11 5 355 347 339 332 325 323 325 325 321 319 318 318 317 315 308 280 232 221 221 221 224 225 223 221 219 217 215 215 214 213 213 213 214 215 216 215 213 210 207 205 203 202 200 197 197 197 199 202 204 205 205 205 204 204 204
307 307 305 306 307 310 315 319 320 321 321 322 322 322 323 326 328 329 326 322 321 322 322 321 319 316 313 319 17 26 13 357 345 335 327 318 316 319 322 318 316 316 317 318 319 319 314 290 255 232 220 218 216 215 215 219 218 216 215 214 214 213 212 212 213 215 216 215 212 209 206 204 202 200 199 198 198 199 201 203 205 206 207 207 207 207
300 300 300 301 303 306 311 314 315 315 316 317 318 321 323 325 325 324 321 319 319 320 321 322 320 318 316 318 347 23 21 358 342 329 321 312 309 310 315 313 311 311 313 315 317 320 323 315 300 272 243 217 209 208 211 214 215 214 214 213 213 212 212 212 212 214 215 215 214 212 208 205 203 201 200 199 199 200 201 203 205 206 207 208 208 209
294 295 297 298 300 303 308 310 311 312 313 316 318 321 322 321 319 317 314 316 317 317 317 317 314 311 312 312 326 356 13 355 338 324 317 309 306 304 306 303 302 303 306 309 313 318 322 321 316 306 291 222 208 207 208 210 211 212 211 211 211 211 211 211 212 213 214 215 215 214 211 209 207 204 203 201 200 201 202 204 206 207 209 209 209 209
291 292 293 295 297 300 303 305 309 312 316 320 322 322 318 316 314 312 310 311 312 313 313 310 306 302 302 302 313 332 353 344 331 319 313 308 306 305 301 297 297 300 302 305 310 315 320 321 318 311 296 255 225 213 208 208 209 210 210 210 210 210 210 210 211 212 213 214 214 213 213 212 211 209 208 206 204 204 204 206 207 209 210 210 210 210
287 287 288 292 296 298 298 299 306 314 321 323 321 316 310 310 309 307 306 308 309 309 308 303 300 299 301 302 309 322 338 334 324 313 306 302 302 302 299 294 295 298 300 303 308 315 320 321 319 311 296 283 259 232 215 211 210 210 210 210 210 210 210 210 210 210 211 212 212 212 211 212 212 212 211 209 208 207 207 208 209 210 211 211 211 211
281 282 284 291 296 296 296 301 310 317 322 320 315 308 303 304 304 305 307 308 307 305 302 297 295 298 304 304 307 313 325 320 313 304 300 298 297 296 293 287 290 295 298 301 306 312 316 317 319 318 315 307 295 275 248 228 219 215 213 212 212 212 211 211 211 210 210 210 210 210 210 210 211 212 212 210 209 209 208 209 210 210 210 210 211 212
275 279 284 290 292 292 294 300 307 312 315 311 305 300 299 303 304 305 307 306 303 298 295 292 293 296 300 298 299 300 305 298 293 291 294 294 293 292 287 283 289 294 296 297 300 304 306 307 307 309 310 308 307 303 292 268 244 230 222 218 216 215 214 213 213 212 211 210 210 209 209 210 210 211 211 211 210 209 208 209 210 210 210 209 210 211
265 272 280 283 285 286 290 295 300 303 305 299 295 293 296 300 300 299 298 297 295 294 293 293 293 293 291 288 288 288 285 278 275 276 283 286 289 291 290 293 296 296 294 295 297 298 300 300 300 300 300 299 300 301 300 293 280 261 242 232 225 221 219 217 216 215 214 213 212 210 210 210 210 210 211 211 210 209 209 209 210 211 211 210 210 210
256 262 268 271 273 276 281 285 288 290 291 288 286 286 288 287 285 284 285 287 290 291 292 292 290 287 282 280 280 280 278 271 267 268 274 279 283 287 296 304 301 297 292 295 298 301 303 300 297 295 293 289 289 290 292 293 290 282 269 254 242 233 227 224 222 220 218 217 215 213 211 211 211 211 211 211 211 210 210 210 211 212 213 212 211 211
250 254 257 260 261 263 268 271 275 277 279 279 277 275 277 278 278 279 280 282 283 284 284 285 284 282 282 281 281 281 281 272 266 266 273 278 283 286 294 299 297 293 291 294 298 302 302 298 295 291 287 282 279 279 282 285 288 289 287 276 263 251 242 235 230 227 224 221 219 217 214 212 212 211 212 212 212 212 211 212 212 213 214 214 214 213
253 255 258 261 263 265 267 269 271 272 273 274 275 276 280 282 283 283 280 278 277 277 278 279 279 280 283 284 283 283 286 277 267 263 270 279 284 286 289 289 288 288 290 293 295 296 296 295 293 291 285 279 276 275 278 286 295 303 306 299 288 275 263 251 244 238 232 228 225 222 219 216 214 213 212 212 212 212 213 213 213 214 214 215 216 216
255 258 261 264 266 268 270 271 272 273 274 274 275 277 282 286 286 283 278 276 276 276 277 278 281 283 284 281 280 281 287 283 274 266 268 278 281 283 285 287 288 288 290 289 288 285 282 284 284 283 281 280 284 292 299 305 311 317 320 314 307 296 284 270 260 251 243 238 233 229 225 222 219 217 215 214 213 213 213 214 214 215 215 215 216 218
255 258 261 264 266 268 270 272 273 273 274 274 274 275 277 278 277 275 274 277 278 278 276 278 280 283 284 283 284 285 287 284 280 276 271 273 275 278 285 290 290 289 289 289 285 277 265 266 268 272 276 288 304 319 319 315 314 314 313 310 306 301 292 281 271 262 254 248 242 237 233 230 226 223 220 217 216 214 214 215 215 216 216 217 218 220
252 254 256 259 261 264 266 268 270 270 271 271 272 272 270 267 265 267 271 276 278 278 275 275 276 278 281 285 287 286 282 278 276 275 271 269 269 273 283 287 290 292 298 299 295 286 265 255 254 261 274 295 307 311 307 309 308 307 304 301 298 295 291 284 276 268 261 255 249 244 241 237 233 231 227 224 221 218 217 216 216 216 216 218 221 224
257 256 256 256 256 257 259 261 262 264 265 266 266 264 260 256 256 260 267 272 273 273 274 274 274 275 279 284 286 283 277 273 273 275 269 266 268 274 285 286 291 302 322 317 309 301 289 269 246 237 259 288 294 296 305 314 317 315 313 304 300 297 291 285 280 274 268 261 255 250 246 242 239 236 233 230 227 224 221 218 216 215 215 218 222 224
273 271 270 267 264 261 258 257 257 257 258 258 257 255 251 248 250 254 260 263 264 266 268 271 272 272 272 276 278 278 278 280 298 328 302 277 279 285 294 292 293 301 318 313 306 302 299 291 268 228 244 293 299 304 311 317 320 319 317 312 308 302 294 288 284 280 275 267 261 255 250 246 242 238 236 233 231 228 225 222 218 215 215 216 218 220
276 275 275 274 273 270 265 261 258 255 254 251 249 246 242 242 244 247 252 255 256 259 262 266 268 268 265 264 265 269 277 285 298 314 306 290 287 289 293 292 293 295 293 279 274 278 288 290 290 292 299 304 307 308 309 309 309 309 311 308 304 300 295 292 289 287 283 274 266 259 254 249 245 241 237 234 232 229 227 224 221 218 216 214 215 216
274 273 272 273 272 271 268 265 262 258 254 250 246 242 239 238 239 241 245 248 251 254 258 262 265 267 266 263 262 264 270 277 283 289 290 286 284 285 286 287 289 290 288 272 256 253 264 276 285 292 294 293 293 294 295 296 296 297 300 300 300 298 297 294 291 290 291 286 280 271 260 251 246 243 239 236 233 230 227 224 222 219 218 216 215 214
273 271 270 270 269 269 267 266 264 262 258 254 249 245 240 238 236 237 239 243 246 249 252 257 261 264 267 267 266 266 267 272 279 285 288 280 278 280 283 282 283 285 286 275 260 252 258 266 275 284 290 288 285 280 278 279 280 282 286 288 292 294 298 296 294 292 293 294 293 288 277 261 252 246 240 236 234 231 228 224 221 218 217 216 215 214
276 273 271 270 269 268 267 266 265 263 261 257 253 248 243 239 236 236 237 240 242 245 247 249 253 257 261 264 266 268 269 272 280 289 293 283 280 281 282 278 278 279 281 277 272 267 268 270 273 279 287 290 287 281 270 261 262 269 274 273 277 282 289 294 296 296 293 291 290 289 289 283 271 256 242 235 232 230 228 225 221 218 216 215 215 214
274 273 271 270 269 268 267 266 266 264 262 260 256 251 245 240 238 236 236 239 242 244 246 247 248 250 252 256 260 264 269 274 280 287 289 286 287 286 282 278 279 281 280 279 277 276 278 279 279 279 281 285 287 286 278 255 240 245 260 263 268 273 281 289 293 295 294 290 287 286 288 289 285 278 261 238 231 229 228 225 222 219 216 215 216 216
269 269 269 269 269 268 267 266 265 264 264 263 260 255 249 243 239 237 237 238 241 244 248 250 251 251 251 252 255 258 265 270 273 275 277 280 282 281 277 278 278 278 276 278 279 280 279 280 279 277 275 274 278 283 285 275 261 251 257 265 272 277 281 282 283 284 287 286 287 287 287 289 288 285 280 254 238 232 229 225 222 219 216 216 216 218
272 273 272 271 270 269 268 266 265 264 264 264 263 260 255 249 245 242 240 241 244 247 250 251 253 254 253 253 254 257 261 264 266 267 267 269 269 269 269 273 272 270 268 272 276 278 276 275 274 273 272 270 271 275 280 282 280 277 276 276 275 273 272 271 270 271 275 281 285 287 288 285 282 280 279 272 264 254 242 233 225 219 215 215 217 219
272 272 272 271 269 269 269 268 267 267 267 267 266 265 264 259 254 249 245 247 248 250 252 254 255 257 256 256 257 258 260 261 262 262 261 259 258 258 260 264 265 265 265 267 269 270 267 266 266 267 271 273 275 275 276 277 277 280 287 284 275 265 255 252 252 254 262 275 284 287 287 283 279 274 272 270 267 264 259 249 234 219 212 212 216 220
272 272 271 271 271 271 271 270 271 271 272 271 270 269 268 264 262 259 256 253 253 253 253 254 256 258 257 257 257 258 259 259 258 257 255 250 247 246 250 254 258 262 264 263 261 260 259 260 261 262 263 267 271 275 277 275 273 274 283 283 278 268 257 250 247 248 257 268 276 281 283 280 276 271 266 263 260 258 258 256 246 228 211 207 208 213
274 273 273 272 272 271 271 272 273 273 273 273 272 270 267 266 265 263 259 256 254 252 252 254 256 258 258 257 256 256 255 254 252 250 247 245 244 245 245 247 250 255 259 259 257 254 253 255 257 258 258 261 265 269 271 271 270 270 270 271 274 276 277 267 262 258 261 264 267 270 273 273 272 269 265 261 257 255 254 257 258 251 231 219 212 208
269 269 270 271 271 272 272 275 276 276 275 274 272 269 268 267 266 265 265 263 260 258 255 255 257 259 261 259 255 253 251 249 246 243 239 236 235 236 239 241 243 245 249 252 253 252 249 250 252 254 254 256 260 264 266 267 267 266 264 267 273 280 280 268 258 249 248 254 259 262 263 267 267 267 265 264 263 262 261 263 266 267 262 246 232 222
274 274 276 277 278 279 281 282 281 280 278 275 272 269 267 266 265 265 265 265 265 264 262 259 259 262 265 266 264 260 254 250 247 245 240 231 227 228 233 236 237 237 238 244 248 250 248 247 248 249 251 252 255 259 262 265 266 265 262 262 265 271 272 264 249 231 226 235 244 252 257 263 266 268 269 268 268 268 268 267 267 267 268 266 257 244
277 279 280 281 282 283 284 282 279 276 274 271 268 267 265 263 262 262 262 262 263 264 263 262 262 263 265 266 267 266 264 259 254 250 246 233 224 221 227 232 233 233 231 236 242 247 249 247 246 246 247 248 250 252 255 259 262 263 262 259 255 251 253 261 264 259 248 246 248 252 255 260 266 270 270 267 265 263 260 258 257 257 258 263 266 264
273 274 274 275 275 274 272 271 272 272 270 267 265 265 264 263 262 260 258 260 261 262 262 262 262 263 263 263 265 267 268 266 262 258 252 234 221 216 220 226 230 231 231 232 234 238 243 247 248 249 247 245 244 245 248 252 257 260 261 257 254 252 250 256 260 261 260 260 260 258 256 259 264 267 267 262 257 250 244 244 247 250 251 253 259 267
263 264 265 266 267 268 269 271 273 274 274 273 273 273 273 272 270 267 263 262 263 263 263 260 258 259 261 263 265 267 268 268 267 265 262 245 227 218 217 223 227 230 231 232 232 233 237 243 249 254 255 250 246 243 241 246 252 256 258 256 255 254 255 253 251 250 251 256 258 259 259 260 262 262 263 263 259 253 242 234 235 240 246 247 250 255
256 258 259 260 261 263 265 268 269 270 272 274 276 278 279 278 277 275 271 267 266 265 264 260 257 256 258 260 262 264 266 268 268 268 268 263 249 233 221 223 226 229 232 234 233 233 236 241 246 250 253 253 251 249 244 243 246 249 252 253 253 253 253 251 248 244 243 246 249 254 257 259 259 259 261 264 263 258 249 235 228 229 236 240 244 248
255 257 259 260 261 263 265 264 263 264 265 268 270 271 272 272 272 271 271 267 264 263 261 258 256 255 256 257 257 258 261 265 267 267 266 267 263 254 237 229 227 229 233 235 236 237 238 240 241 241 244 247 251 253 253 248 245 245 248 249 249 250 251 251 249 246 242 240 241 243 246 248 251 256 262 264 264 261 255 243 228 218 219 227 236 243
256 259 262 265 266 266 268 266 264 262 262 263 264 265 264 264 265 265 266 265 264 262 260 257 256 257 257 257 257 257 258 260 262 263 262 263 262 260 252 242 234 232 234 235 236 237 240 240 238 236 235 237 243 250 254 252 250 247 247 246 245 246 248 250 249 247 242 239 237 236 236 239 243 250 259 263 265 265 263 254 237 220 209 214 227 239
261 263 266 267 268 269 270 269 267 266 265 265 265 265 265 264 262 262 263 264 264 263 261 259 259 259 259 259 258 258 258 259 260 260 259 258 257 258 257 251 244 240 240 238 235 235 237 240 237 233 228 226 229 236 247 251 252 250 248 245 242 242 245 248 249 247 242 239 236 235 235 237 239 243 249 257 262 266 267 261 249 231 205 206 219 234
265 265 266 266 266 267 268 269 269 270 271 272 272 272 271 268 266 264 263 263 263 264 263 260 258 257 258 259 259 258 258 258 259 259 258 257 256 256 255 252 250 247 249 248 243 238 233 237 238 233 225 218 216 218 229 239 244 247 247 243 240 238 240 245 246 245 241 239 236 234 233 234 233 234 236 247 256 262 264 262 256 242 209 202 214 230